KD2SJF Weather Reports


Display with metric or nautical units.
time (UTC)temp
F
wind
direction
speed
MPH
gust
MPH
rain 1hr
in
rain 24hr
in
rain mn
in
humidity
%
barometer
mb
20260506181549 56 219 5.0 14.0 0.05 0.65 0.61 91 1006.3
20260506180057 56 218 7.0 17.0 0.06 0.64 0.60 90 1006.5
20260506174549 56 221 7.0 16.0 0.08 0.63 0.58 90 1006.5
20260506173103 56 227 6.0 13.0 0.11 0.62 0.58 90 1006.5
20260506171552 56 202 4.0 12.0 0.16 0.60 0.56 90 1006.5
20260506170051 56 167 6.0 12.0 0.17 0.58 0.54 90 1006.6
20260506164554 55 184 4.0 13.0 0.16 0.55 0.51 90 1006.7
20260506163044 56 183 4.0 12.0 0.13 0.51 0.47 89 1006.7
20260506161552 56 248 2.0 11.0 0.07 0.43 0.39 87 1006.8
20260506160104 56 203 5.0 12.0 0.06 0.41 0.37 87 1006.7
20260506154609 56 167 4.0 9.0 0.06 0.39 0.35 87 1006.5
20260506153050 56 206 5.0 12.0 0.07 0.38 0.34 86 1006.9
20260506151550 56 165 5.0 14.0 0.07 0.36 0.32 86 1007.1
20260506150047 56 198 5.0 11.0 0.09 0.35 0.31 88 1007.2
20260506144552 56 193 3.0 13.0 0.10 0.33 0.29 88 1007.5
20260506143044 56 190 4.0 12.0 0.10 0.31 0.27 88 1007.5
20260506141605 56 195 4.0 16.0 0.09 0.29 0.25 88 1008.1
20260506140049 56 211 6.0 17.0 0.07 0.26 0.22 87 1008.1
20260506134546 55 184 5.0 11.0 0.05 0.23 0.19 88 1008.2
20260506133047 55 204 3.0 8.0 0.04 0.21 0.17 88 1008.2
20260506131554 55 195 0.0 7.0 0.05 0.20 0.16 88 1007.9
20260506130051 54 194 2.0 6.0 0.06 0.19 0.15 88 1007.9
20260506124544 54 178 1.0 4.0 0.08 0.18 0.14 88 1007.8
20260506123049 53 190 0.0 5.0 0.09 0.17 0.13 89 1008.0
20260506121600 53 183 3.0 6.0 0.08 0.15 0.11 89 1008.4
20260506120116 53 215 3.0 6.0 0.08 0.13 0.09 88 1008.6
20260506114549 54 193 3.0 8.0 0.06 0.10 0.06 87 1009.0
20260506113056 54 201 2.0 4.0 0.04 0.08 0.04 86 1008.8
20260506111549 55 0 4.0 10.0 0.03 0.07 0.03 82 1008.6
20260506110055 55 0 0.0 2.0 0.01 0.05 0.01 82 1008.4
20260506104550 56 0 0.0 2.0 0.00 0.04 0.00 78 1008.3
20260506103055 58 0 0.0 4.0 0.00 0.04 0.00 71 1008.1
20260506101550 58 0 0.0 5.0 0.00 0.04 0.00 71 1008.0
20260506100048 57 0 1.0 5.0 0.00 0.04 0.00 73 1007.9
20260506094554 56 0 0.0 5.0 0.00 0.10 0.00 79 1007.7
20260506093052 52 0 0.0 2.0 0.00 0.10 0.00 92 1007.8
20260506091544 51 0 0.0 2.0 0.00 0.10 0.00 93 1007.6
20260506090043 51 0 0.0 4.0 0.00 0.10 0.00 93 1007.6
20260506084549 51 0 1.0 6.0 0.00 0.18 0.00 93 1007.8
20260506083048 51 0 0.0 0.0 0.00 0.18 0.00 93 1008.1
20260506081550 51 0 0.0 3.0 0.00 0.18 0.00 92 1008.3
20260506073055 51 0 0.0 0.0 0.00 0.18 0.00 92 1008.8
20260506071553 51 0 0.0 0.0 0.00 0.18 0.00 92 1009.0
20260506070107 52 0 0.0 0.0 0.00 0.18 0.00 92 1009.1
20260506061550 53 0 0.0 0.0 0.00 0.18 0.00 92 1009.5
20260506044558 54 0 0.0 3.0 0.00 0.18 0.00 90 1010.2
20260506043051 54 360 1.0 6.0 0.00 0.18 0.00 90 1010.4
20260506041556 54 21 3.0 6.0 0.01 0.18 0.00 91 1010.4
20260506040051 55 51 1.0 4.0 0.01 0.18 0.00 90 1010.3
20260506034549 56 0 0.0 1.0 0.02 0.18 0.18 90 1010.3
20260506033048 56 229 0.0 4.0 0.02 0.18 0.18 89 1010.3
20260506031558 56 0 1.0 3.0 0.01 0.17 0.17 88 1010.0
20260506030109 56 0 0.0 4.0 0.01 0.17 0.17 87 1010.0
20260506024552 56 0 0.0 4.0 0.00 0.16 0.16 88 1010.1
20260506023056 56 230 2.0 5.0 0.00 0.16 0.16 87 1010.0
20260506021547 57 230 0.0 3.0 0.00 0.16 0.16 88 1010.1
20260506020051 57 0 0.0 2.0 0.00 0.16 0.16 86 1010.0
20260506014600 58 0 0.0 1.0 0.00 0.16 0.16 83 1010.0
20260506013058 58 0 0.0 2.0 0.00 0.16 0.16 83 1009.8
20260506011557 58 0 0.0 0.0 0.00 0.16 0.16 82 1009.4
20260506010058 58 0 0.0 1.0 0.00 0.16 0.16 82 1009.3
20260506004624 59 230 0.0 2.0 0.00 0.16 0.16 80 1009.2
20260506003049 58 0 0.0 2.0 0.00 0.16 0.16 82 1009.1
20260506001549 58 0 0.0 4.0 0.00 0.16 0.16 82 1009.0
20260506000048 58 0 0.0 2.0 0.00 0.16 0.16 82 1008.9
20260505234607 59 0 0.0 4.0 0.00 0.16 0.16 81 1009.0
20260505233048 59 281 1.0 6.0 0.00 0.16 0.16 79 1008.6
20260505231550 59 206 0.0 5.0 0.00 0.16 0.16 81 1008.4
20260505230051 59 244 3.0 9.0 0.00 0.16 0.16 79 1008.1
20260505224544 59 238 1.0 9.0 0.00 0.16 0.16 81 1008.2
20260505223058 58 0 1.0 5.0 0.01 0.16 0.16 84 1008.1
20260505221605 58 0 1.0 8.0 0.02 0.16 0.16 86 1008.2
20260505220119 57 169 4.0 10.0 0.02 0.16 0.16 84 1008.7
20260505214604 58 125 1.0 13.0 0.01 0.15 0.15 81 1008.8
20260505213047 59 0 1.0 11.0 0.01 0.15 0.15 79 1009.3
20260505211559 65 244 8.0 21.0 0.00 0.14 0.14 63 1009.1
20260505210046 72 183 4.0 19.0 0.00 0.14 0.14 35 1007.0
20260505204545 72 257 9.0 22.0 0.00 0.14 0.14 33 1006.3
20260505203049 73 192 10.0 23.0 0.00 0.14 0.14 32 1006.4
20260505201602 74 180 13.0 29.0 0.00 0.14 0.14 31 1006.0
20260505200100 74 211 11.0 30.0 0.00 0.14 0.14 33 1006.1
20260505194543 74 89 14.0 28.0 0.00 0.14 0.14 32 1006.0
20260505193049 74 187 12.0 27.0 0.00 0.14 0.14 32 1006.2
20260505191553 74 188 12.0 37.0 0.00 0.14 0.14 34 1006.2
20260505190059 74 200 14.0 34.0 0.00 0.14 0.14 36 1006.6
20260505184550 73 190 11.0 26.0 0.00 0.14 0.14 38 1006.6
20260505183052 73 225 14.0 31.0 0.00 0.14 0.14 38 1006.8